Location: *
(51.1248°S, 108.4023°W)
Time: 16:47:24
(UTC+00:00)

Envisat - Visible Passes

Search period start: 25 September 2021 00:00
Search period end: 05 October 2021 00:00
Orbit: 764 x 766 km, 98.2° (Epoch: 25 September)

Date Brightness Start Highest point End Pass type
(mag) Time Alt. Az. Time Alt. Az. Time Alt. Az.
25 Sep 6.0 09:30:46 10° E 09:33:33 15° SE 09:36:20 10° SSE visible
25 Sep 3.3 11:06:37 10° NNE 11:11:43 72° ESE 11:16:53 10° S visible
26 Sep 6.0 02:29:35 10° SSW 02:32:37 16° SW 02:35:37 10° W visible
26 Sep 4.5 10:30:19 10° NE 10:35:02 38° ESE 10:39:48 10° S visible
26 Sep 3.5 12:09:20 10° NNW 12:14:04 37° W 12:18:52 10° SSW visible
27 Sep 5.4 01:51:54 10° S 01:56:13 27° WSW 02:00:30 10° WNW visible
27 Sep 5.5 09:54:42 10° ENE 09:58:32 22° ESE 10:02:24 10° S visible
27 Sep 3.0 11:31:56 10° N 11:37:03 73° WNW 11:42:15 10° SSW visible
28 Sep 6.4 02:56:27 10° SW 02:57:31 11° SW 02:58:35 10° WSW visible
28 Sep 6.2 09:20:09 10° ESE 09:22:13 12° SE 09:24:18 10° SSE visible
28 Sep 3.6 10:55:12 10° NNE 11:00:14 59° ESE 11:05:20 10° S visible
29 Sep 5.9 02:17:45 10° SSW 02:21:15 19° SW 02:24:44 10° W visible
29 Sep 4.9 10:19:06 10° NE 10:23:36 32° ESE 10:28:09 10° S visible
29 Sep 3.3 11:57:35 10° N 12:02:29 45° W 12:07:27 10° SSW visible
30 Sep 5.8 09:43:44 10° E 09:47:10 18° SE 09:50:37 10° SSE visible
30 Sep 3.0 11:20:23 10° NNE 11:25:32 88° WNW 11:30:45 10° SSW visible
01 Oct 6.2 02:44:02 10° SSW 02:46:12 13° SW 02:48:22 10° WSW visible
01 Oct 6.3 09:10:02 10° ESE 09:10:54 10° SE 09:11:46 10° SE visible
01 Oct 4.0 10:43:51 10° NE 10:48:46 49° ESE 10:53:45 10° S visible
02 Oct 5.8 02:05:59 10° S 02:09:53 22° WSW 02:13:45 10° WNW visible
02 Oct 5.2 10:07:57 10° ENE 10:12:12 27° ESE 10:16:29 10° S visible
02 Oct 3.1 11:45:53 10° N 11:50:55 55° W 11:56:01 10° SSW visible
03 Oct 6.0 09:32:51 10° E 09:35:49 16° SE 09:38:47 10° SSE visible
03 Oct 3.2 11:08:54 10° NNE 11:14:01 77° ESE 11:19:12 10° SSW visible
04 Oct 6.1 02:32:01 10° SSW 02:34:52 15° SW 02:37:42 10° W visible
04 Oct 4.4 10:32:33 10° NE 10:37:19 40° ESE 10:42:08 10° S visible
